Terug naar catalogus

CZ-6A DEB

ActiefSSO
NORAD 54581·DEBRIS·🇨🇳 China

Gelanceerd Nov 11, 2022 vanaf Taiyuan Satellite Launch Center

Loading…

Volgende Passages (komende 24 uur)

TLE

VersSource: Space-Track

Epoch: Sep 14, 2026, 13:19 UTC

1 54581U 22151MH  26257.55531872  .00000338  00000-0  11593-3 0  9998
2 54581  98.6011 293.6867 0117896  99.3242 262.1299 14.38553732200769

Volg CZ-6A DEB in realtime met AllMySat

Download on the App Store